| time (UTC) | temp F | wind direction | speed MPH | gust MPH | rain 1hr in | rain 24hr in | rain mn in | humidity % | barometer mb |
| 20260502222728 | 46 | 308 | 1.0 | 5.0 | 0.00 | 0.02 | 0.00 | 52 | 1017.3 |
| 20260502221710 | 47 | 288 | 0.0 | 2.0 | 0.00 | 0.02 | 0.00 | 53 | 1017.3 |
| 20260502215551 | 47 | 271 | 1.0 | 5.0 | 0.00 | 0.02 | 0.00 | 52 | 1017.2 |
| 20260502214529 | 47 | 281 | 0.0 | 6.0 | 0.00 | 0.02 | 0.00 | 52 | 1017.2 |
| 20260502213501 | 47 | 321 | 1.0 | 6.0 | 0.00 | 0.02 | 0.00 | 51 | 1017.1 |
| 20260502212439 | 47 | 268 | 1.0 | 3.0 | 0.00 | 0.02 | 0.00 | 51 | 1017.0 |
| 20260502211411 | 47 | 300 | 1.0 | 5.0 | 0.00 | 0.02 | 0.00 | 51 | 1017.0 |
| 20260502210413 | 48 | 292 | 0.0 | 6.0 | 0.00 | 0.02 | 0.00 | 51 | 1016.9 |
| 20260502205411 | 47 | 279 | 1.0 | 6.0 | 0.00 | 0.02 | 0.00 | 52 | 1017.0 |
| 20260502204417 | 47 | 267 | 2.0 | 6.0 | 0.00 | 0.02 | 0.00 | 50 | 1017.0 |
| 20260502202339 | 47 | 269 | 2.0 | 6.0 | 0.00 | 0.02 | 0.00 | 50 | 1017.1 |
| 20260502201329 | 47 | 20 | 1.0 | 4.0 | 0.00 | 0.02 | 0.00 | 49 | 1017.1 |
| 20260502200306 | 47 | 259 | 1.0 | 6.0 | 0.00 | 0.02 | 0.00 | 52 | 1017.1 |
| 20260502195321 | 48 | 271 | 1.0 | 6.0 | 0.00 | 0.02 | 0.00 | 52 | 1017.2 |
| 20260502194303 | 48 | 46 | 1.0 | 7.0 | 0.00 | 0.02 | 0.00 | 50 | 1017.4 |
| 20260502193317 | 48 | 303 | 1.0 | 7.0 | 0.00 | 0.02 | 0.00 | 51 | 1017.3 |
| 20260502192327 | 48 | 281 | 1.0 | 8.0 | 0.00 | 0.02 | 0.00 | 52 | 1017.4 |
| 20260502191254 | 48 | 272 | 1.0 | 8.0 | 0.00 | 0.02 | 0.00 | 51 | 1017.5 |
| 20260502184037 | 47 | 281 | 1.0 | 7.0 | 0.00 | 0.02 | 0.00 | 56 | 1017.7 |
| 20260502183053 | 47 | 284 | 1.0 | 8.0 | 0.00 | 0.02 | 0.00 | 55 | 1017.7 |
| 20260502182105 | 47 | 290 | 1.0 | 8.0 | 0.00 | 0.02 | 0.00 | 54 | 1017.7 |
| 20260502181116 | 47 | 319 | 1.0 | 7.0 | 0.00 | 0.02 | 0.00 | 54 | 1017.7 |
| 20260502180121 | 47 | 294 | 0.0 | 7.0 | 0.00 | 0.02 | 0.00 | 53 | 1017.7 |
| 20260502163700 | 46 | 298 | 2.0 | 6.0 | 0.00 | 0.02 | 0.00 | 59 | 1018.0 |
| 20260502162704 | 46 | 239 | 2.0 | 6.0 | 0.00 | 0.02 | 0.00 | 58 | 1018.1 |
| 20260502161635 | 46 | 283 | 1.0 | 6.0 | 0.00 | 0.02 | 0.00 | 57 | 1018.2 |
| 20260502160611 | 46 | 271 | 1.0 | 5.0 | 0.00 | 0.02 | 0.00 | 61 | 1018.2 |
| 20260502151557 | 45 | 284 | 1.0 | 5.0 | 0.00 | 0.04 | 0.00 | 68 | 1018.0 |
| 20260502150533 | 44 | 274 | 1.0 | 6.0 | 0.00 | 0.04 | 0.00 | 65 | 1018.1 |
| 20260502130403 | 40 | 323 | 0.0 | 3.0 | 0.00 | 0.05 | 0.00 | 81 | 1017.8 |
| 20260502122249 | 37 | 279 | 1.0 | 3.0 | 0.00 | 0.05 | 0.00 | 89 | 1017.6 |
| 20260502120130 | 35 | 305 | 0.0 | 2.0 | 0.00 | 0.06 | 0.00 | 94 | 1017.4 |
| 20260502115108 | 34 | 310 | 0.0 | 0.0 | 0.00 | 0.06 | 0.00 | 95 | 1017.3 |
| 20260502114118 | 34 | 310 | 0.0 | 1.0 | 0.00 | 0.06 | 0.00 | 95 | 1017.3 |
| 20260502113056 | 33 | 310 | 0.0 | 1.0 | 0.00 | 0.06 | 0.00 | 95 | 1017.3 |
| 20260502112048 | 32 | 310 | 0.0 | 0.0 | 0.00 | 0.06 | 0.00 | 95 | 1017.2 |
| 20260502111048 | 32 | 310 | 0.0 | 0.0 | 0.00 | 0.06 | 0.00 | 95 | 1017.1 |
| 20260502110020 | 32 | 310 | 0.0 | 0.0 | 0.00 | 0.06 | 0.00 | 94 | 1017.1 |
| 20260502105028 | 32 | 310 | 0.0 | 0.0 | 0.00 | 0.06 | 0.00 | 94 | 1017.0 |
| 20260502103954 | 32 | 310 | 0.0 | 0.0 | 0.00 | 0.06 | 0.00 | 94 | 1017.0 |
| 20260502103010 | 32 | 310 | 0.0 | 0.0 | 0.00 | 0.06 | 0.00 | 94 | 1017.1 |
| 20260502102028 | 32 | 310 | 0.0 | 0.0 | 0.00 | 0.06 | 0.00 | 94 | 1017.1 |
| 20260502090333 | 32 | 310 | 0.0 | 0.0 | 0.00 | 0.06 | 0.00 | 94 | 1017.0 |
| 20260502071103 | 34 | 310 | 0.0 | 0.0 | 0.00 | 0.06 | 0.00 | 94 | 1016.7 |
| 20260502070056 | 34 | 310 | 0.0 | 0.0 | 0.00 | 0.06 | 0.00 | 94 | 1016.9 |
| 20260502065104 | 34 | 310 | 0.0 | 0.0 | 0.00 | 0.06 | 0.00 | 94 | 1016.9 |
| 20260502064102 | 34 | 310 | 0.0 | 0.0 | 0.00 | 0.06 | 0.00 | 93 | 1017.0 |
| 20260502063030 | 34 | 310 | 0.0 | 0.0 | 0.00 | 0.06 | 0.00 | 93 | 1016.9 |
| 20260502062050 | 34 | 310 | 0.0 | 0.0 | 0.00 | 0.06 | 0.00 | 93 | 1017.0 |
| 20260502061114 | 35 | 310 | 0.0 | 0.0 | 0.00 | 0.06 | 0.00 | 93 | 1017.0 |
| 20260502060043 | 35 | 310 | 0.0 | 0.0 | 0.00 | 0.06 | 0.00 | 93 | 1017.0 |
| 20260502055008 | 35 | 310 | 0.0 | 0.0 | 0.00 | 0.06 | 0.00 | 93 | 1017.0 |
| 20260502053944 | 35 | 310 | 0.0 | 0.0 | 0.00 | 0.06 | 0.00 | 93 | 1017.1 |
| 20260502052940 | 36 | 310 | 0.0 | 0.0 | 0.00 | 0.06 | 0.00 | 93 | 1017.2 |
| 20260502051906 | 36 | 310 | 0.0 | 0.0 | 0.00 | 0.06 | 0.00 | 93 | 1017.1 |
| 20260502045742 | 36 | 310 | 0.0 | 0.0 | 0.00 | 0.06 | 0.00 | 93 | 1017.1 |
| 20260502044721 | 37 | 310 | 0.0 | 0.0 | 0.00 | 0.06 | 0.00 | 93 | 1017.2 |
| 20260502043717 | 37 | 310 | 0.0 | 0.0 | 0.00 | 0.06 | 0.00 | 93 | 1017.0 |
| 20260502042717 | 37 | 310 | 0.0 | 0.0 | 0.00 | 0.06 | 0.00 | 93 | 1017.0 |
| 20260502041721 | 37 | 310 | 0.0 | 0.0 | 0.00 | 0.06 | 0.00 | 93 | 1017.1 |
| 20260502040745 | 37 | 310 | 0.0 | 0.0 | 0.00 | 0.06 | 0.00 | 92 | 1017.0 |
| 20260502035711 | 38 | 310 | 0.0 | 0.0 | 0.00 | 0.06 | 0.06 | 92 | 1016.9 |
| 20260502034659 | 38 | 310 | 0.0 | 0.0 | 0.00 | 0.06 | 0.06 | 92 | 1016.9 |
| 20260502033635 | 38 | 310 | 0.0 | 0.0 | 0.00 | 0.06 | 0.06 | 92 | 1016.9 |
| 20260502032656 | 38 | 310 | 0.0 | 0.0 | 0.00 | 0.06 | 0.06 | 92 | 1017.0 |
| 20260502031638 | 39 | 310 | 0.0 | 0.0 | 0.00 | 0.06 | 0.06 | 92 | 1017.0 |
| 20260502030629 | 39 | 310 | 0.0 | 0.0 | 0.00 | 0.06 | 0.06 | 91 | 1017.0 |
| 20260502025639 | 39 | 310 | 0.0 | 0.0 | 0.00 | 0.06 | 0.06 | 91 | 1016.9 |
| 20260502024654 | 40 | 310 | 0.0 | 0.0 | 0.00 | 0.06 | 0.06 | 91 | 1016.9 |
| 20260502023638 | 40 | 310 | 0.0 | 0.0 | 0.00 | 0.06 | 0.06 | 90 | 1017.1 |
| 20260502022656 | 40 | 310 | 0.0 | 0.0 | 0.00 | 0.06 | 0.06 | 90 | 1017.0 |
| 20260502021655 | 41 | 310 | 0.0 | 0.0 | 0.00 | 0.06 | 0.06 | 89 | 1016.9 |
| 20260502020624 | 41 | 310 | 0.0 | 0.0 | 0.00 | 0.06 | 0.06 | 89 | 1016.7 |
| 20260502014535 | 42 | 310 | 0.0 | 0.0 | 0.00 | 0.06 | 0.06 | 88 | 1016.4 |
| 20260502013532 | 43 | 310 | 0.0 | 0.0 | 0.00 | 0.06 | 0.06 | 87 | 1016.3 |
| 20260502012459 | 43 | 310 | 0.0 | 0.0 | 0.00 | 0.06 | 0.06 | 86 | 1016.1 |
| 20260502011520 | 44 | 310 | 0.0 | 0.0 | 0.00 | 0.06 | 0.06 | 85 | 1015.9 |
| 20260502010519 | 45 | 310 | 0.0 | 0.0 | 0.00 | 0.06 | 0.06 | 83 | 1015.5 |
| 20260502005449 | 46 | 310 | 0.0 | 0.0 | 0.08 | 0.06 | 0.06 | 80 | 1015.6 |
| 20260502004456 | 47 | 310 | 1.0 | 5.0 | 0.00 | 0.04 | 0.05 | 76 | 1015.6 |
| 20260502003459 | 48 | 284 | 0.0 | 2.0 | 0.00 | 0.04 | 0.04 | 69 | 1015.5 |
| 20260502001327 | 48 | 261 | 0.0 | 2.0 | 0.00 | 0.04 | 0.04 | 68 | 1015.2 |
| 20260502000332 | 48 | 261 | 1.0 | 3.0 | 0.00 | 0.04 | 0.04 | 69 | 1015.2 |
| 20260501234154 | 49 | 281 | 0.0 | 2.0 | 0.00 | 0.04 | 0.04 | 71 | 1014.7 |
| 20260501233132 | 49 | 277 | 0.0 | 0.0 | 0.00 | 0.04 | 0.04 | 71 | 1014.5 |
| 20260501232112 | 49 | 277 | 0.0 | 2.0 | 0.00 | 0.04 | 0.04 | 71 | 1014.4 |
| 20260501231114 | 49 | 277 | 0.0 | 0.0 | 0.00 | 0.04 | 0.04 | 73 | 1014.4 |
| 20260501225027 | 49 | 308 | 0.0 | 2.0 | 0.00 | 0.04 | 0.04 | 72 | 1014.3 |